Tracking 31027 objects as of 19-Jul-2025
HD Live streaming from Space Station
objects crossing your sky now

STARLINK-30807

Track STARLINK-30807 now!
10-day predictions
STARLINK-30807 is classified as:


NORAD ID: 58192
Int'l Code: 2023-167T
Perigee: 565.6 km
Apogee: 566.9 km
Inclination: 43.0 °
Period: 95.8 minutes
Semi major axis: 6937 km
RCS: Unknown
Launch date: October 30, 2023
Source: United States (US)
Launch site: AIR FORCE EASTERN TEST RANGE (AFETR)
Your satellite tracking list
NOAA 16 DEB
Track 1 satellite(s)




NASA's NSSDC Master Catalog

Two Line Element Set (TLE):
1 58192U 23167T   25199.88560400  .00001923  00000-0  15745-3 0  9991
2 58192  43.0042 336.4739 0000994 272.1629  87.9100 15.02522624 95789
Source of the keplerian elements: AFSPC